HST,Max TemperatureF,Mean TemperatureF,Min TemperatureF,Max Dew PointF,MeanDew PointF,Min DewpointF,Max Humidity, Mean Humidity, Min Humidity, Max Sea Level PressureIn, Mean Sea Level PressureIn, Min Sea Level PressureIn, Max VisibilityMiles, Mean VisibilityMiles, Min VisibilityMiles, Max Wind SpeedMPH, Mean Wind SpeedMPH, Max Gust SpeedMPH,PrecipitationIn, CloudCover, Events, WindDirDegrees
2013-1-1,69,66,64,66,65,62,94,91,87,30.11,30.07,30.02,10,9,2,15,8,18,0.09,5,Rain,344
2013-1-2,71,68,64,66,64,63,94,89,77,30.08,30.03,29.96,10,10,2,10,6,21,0.10,6,Rain,337
2013-1-3,71,68,66,68,65,63,95,90,83,30.09,30.03,29.98,10,9,4,15,6,22,0.11,4,Rain,360
2013-1-4,71,68,66,65,63,60,88,84,78,30.13,30.07,30.02,10,8,2,24,8,36,0.30,5,Rain,57
2013-1-5,71,68,66,66,63,62,88,84,78,30.17,30.09,30.04,10,8,2,30,14,40,0.26,5,Rain,86
2013-1-6,73,70,68,65,62,60,88,78,70,30.12,30.08,30.00,10,9,5,18,8,28,0.05,6,Rain,118
2013-1-7,73,70,66,66,64,60,94,79,69,30.08,30.02,29.97,10,9,5,17,6,22,0.05,5,Rain,95
2013-1-8,73,70,67,64,64,62,88,82,69,30.00,29.95,29.90,10,9,3,15,7,25,0.04,6,Rain,115
2013-1-9,75,70,66,66,64,63,94,80,65,29.99,29.94,29.89,10,10,6,15,4,23,0.00,6,Rain,123
2013-1-10,76,70,64,63,61,59,85,76,59,29.99,29.95,29.91,10,10,9,13,4,,0.00,3,,117
2013-1-11,76,70,64,63,61,59,88,78,57,29.97,29.91,29.86,10,10,10,12,2,,0.00,5,,342
2013-1-12,76,70,63,66,64,61,94,87,67,29.95,29.92,29.86,10,10,4,8,3,,0.05,5,Rain,170
2013-1-13,78,71,64,68,65,63,100,91,62,29.97,29.93,29.90,10,10,2,9,1,,0.00,5,,160
2013-1-14,73,69,64,72,67,62,100,93,81,30.00,29.91,29.86,10,8,1,14,6,21,0.82,6,Rain,183
2013-1-15,75,68,58,63,61,54,100,87,58,30.11,29.90,29.84,10,10,9,13,5,,0.01,2,Rain,329
2013-1-16,74,66,57,63,59,52,94,78,54,29.95,29.90,29.83,10,10,8,15,8,22,0.00,1,Rain,333
2013-1-17,78,68,59,61,58,55,92,77,44,29.92,29.88,29.81,10,10,10,13,5,17,0.00,2,Rain,332
2013-1-18,73,64,56,63,59,53,94,75,58,29.95,29.89,29.83,10,10,10,15,7,22,0.00,3,Rain,331
2013-1-19,72,66,59,58,54,51,79,66,49,30.02,29.96,29.91,10,10,10,18,7,26,0.00,2,,344
2013-1-20,72,66,61,56,55,53,77,67,51,30.06,30.02,29.97,10,10,10,16,8,21,0.00,1,,350
2013-1-21,73,68,62,61,58,55,82,68,61,30.12,30.07,30.03,10,10,10,14,8,21,0.00,6,,20
2013-1-22,76,68,61,63,59,57,88,73,51,30.14,30.08,30.03,10,10,10,12,4,,0.00,5,,61
2013-1-23,73,68,64,64,62,56,94,81,68,30.07,30.03,29.98,10,9,2,13,4,,0.06,6,Rain,83
2013-1-24,71,68,61,67,65,60,100,92,83,30.08,30.03,29.99,10,8,2,7,3,,0.31,6,Rain,236
2013-1-25,75,67,59,66,63,58,95,82,61,30.06,30.01,29.97,10,10,6,6,2,,0.08,3,Rain,359
2013-1-26,75,66,58,67,61,57,96,88,66,30.01,29.99,29.97,10,10,10,9,3,,0.00,1,,348
2013-1-27,,,,,,,,,,,,,,,,,,,,,,
2013-1-28,70,67,64,66,64,62,94,88,78,29.97,29.92,29.88,10,8,1,10,4,,0.17,7,Rain,163
2013-1-29,75,68,61,65,63,60,94,79,69,30.01,29.95,29.91,10,10,10,14,6,,0.01,4,Rain,341
2013-1-30,76,68,60,66,63,58,93,84,69,30.06,30.01,29.98,10,10,5,12,5,,0.03,4,Rain,360
2013-1-31,76,69,62,64,62,60,92,80,61,30.09,30.06,30.02,10,10,10,16,7,21,0.00,2,,360